| time (UTC) | temp F | wind direction | speed knots | gust knots | rain 1hr in | rain 24hr in | rain mn in | humidity % | barometer mb |
| 20260507114505 | 80 | 76 | 0.9 | 7.8 | 0.00 | 0.00 | 0.00 | 80 | 1016.7 |
| 20260507113006 | 79 | 70 | 1.7 | 5.2 | 0.00 | 0.00 | 0.00 | 82 | 1016.7 |
| 20260507111516 | 78 | 40 | 0.9 | 3.5 | 0.00 | 0.00 | 0.00 | 84 | 1016.6 |
| 20260507110018 | 76 | 143 | 0.9 | 3.5 | 0.00 | 0.00 | 0.00 | 85 | 1016.5 |
| 20260507104530 | 76 | 18 | 0.0 | 2.6 | 0.00 | 0.00 | 0.00 | 86 | 1016.6 |
| 20260507103032 | 75 | 37 | 0.9 | 7.0 | 0.00 | 0.00 | 0.00 | 85 | 1016.4 |
| 20260507101532 | 75 | 109 | 0.0 | 1.7 | 0.00 | 0.00 | 0.00 | 85 | 1016.3 |
| 20260507100042 | 75 | 45 | 0.0 | 4.3 | 0.00 | 0.00 | 0.00 | 84 | 1016.2 |
| 20260507094544 | 75 | 41 | 0.0 | 1.7 | 0.00 | 0.00 | 0.00 | 84 | 1016.0 |
| 20260507093053 | 75 | 58 | 0.9 | 2.6 | 0.00 | 0.00 | 0.00 | 83 | 1015.8 |
| 20260507091551 | 76 | 90 | 0.0 | 2.6 | 0.00 | 0.00 | 0.00 | 84 | 1015.8 |
| 20260507090047 | 76 | 91 | 0.0 | 3.5 | 0.00 | 0.00 | 0.00 | 84 | 1015.7 |
| 20260507084551 | 76 | 60 | 0.9 | 5.2 | 0.00 | 0.00 | 0.00 | 84 | 1015.7 |
| 20260507083050 | 76 | 57 | 0.9 | 2.6 | 0.00 | 0.00 | 0.00 | 84 | 1015.7 |
| 20260507081548 | 76 | 64 | 0.0 | 4.3 | 0.00 | 0.00 | 0.00 | 83 | 1015.7 |
| 20260507080048 | 76 | 170 | 0.0 | 2.6 | 0.00 | 0.00 | 0.00 | 83 | 1015.6 |
| 20260507074600 | 76 | 152 | 0.9 | 5.2 | 0.00 | 0.00 | 0.00 | 84 | 1015.6 |
| 20260507073047 | 77 | 73 | 0.9 | 4.3 | 0.00 | 0.00 | 0.00 | 84 | 1015.6 |
| 20260507071549 | 77 | 25 | 0.9 | 3.5 | 0.00 | 0.00 | 0.00 | 83 | 1015.8 |
| 20260507070051 | 77 | 59 | 0.9 | 4.3 | 0.00 | 0.00 | 0.00 | 83 | 1015.7 |
| 20260507064553 | 77 | 43 | 0.9 | 3.5 | 0.00 | 0.00 | 0.00 | 82 | 1015.8 |
| 20260507063054 | 77 | 60 | 1.7 | 5.2 | 0.00 | 0.00 | 0.00 | 83 | 1015.8 |
| 20260507061555 | 77 | 40 | 0.9 | 4.3 | 0.00 | 0.00 | 0.00 | 84 | 1016.0 |
| 20260507060052 | 77 | 56 | 1.7 | 5.2 | 0.00 | 0.00 | 0.00 | 84 | 1016.3 |
| 20260507054639 | 78 | 64 | 1.7 | 6.1 | 0.00 | 0.00 | 0.00 | 84 | 1016.5 |
| 20260507053105 | 78 | 74 | 0.9 | 4.3 | 0.00 | 0.00 | 0.00 | 84 | 1016.6 |
| 20260507051501 | 78 | 23 | 0.9 | 5.2 | 0.00 | 0.00 | 0.00 | 83 | 1016.8 |
| 20260507050011 | 78 | 136 | 0.9 | 7.0 | 0.00 | 0.00 | 0.00 | 83 | 1017.0 |
| 20260507044506 | 78 | 38 | 0.9 | 5.2 | 0.00 | 0.00 | 0.00 | 82 | 1017.2 |
| 20260507043017 | 78 | 12 | 0.9 | 7.0 | 0.00 | 0.00 | 0.00 | 82 | 1017.2 |
| 20260507041519 | 78 | 127 | 0.9 | 5.2 | 0.00 | 0.00 | 0.00 | 82 | 1017.4 |
| 20260507040022 | 78 | 40 | 0.0 | 8.7 | 0.00 | 0.00 | 0.00 | 81 | 1017.5 |
| 20260507034533 | 78 | 56 | 1.7 | 5.2 | 0.00 | 0.00 | 0.00 | 82 | 1017.5 |
| 20260507033034 | 78 | 43 | 1.7 | 3.5 | 0.00 | 0.00 | 0.00 | 80 | 1017.7 |
| 20260507031601 | 78 | 84 | 1.7 | 7.0 | 0.00 | 0.00 | 0.00 | 79 | 1017.9 |
| 20260507030053 | 78 | 107 | 1.7 | 7.8 | 0.00 | 0.00 | 0.00 | 79 | 1018.0 |
| 20260507024548 | 78 | 67 | 0.9 | 5.2 | 0.00 | 0.00 | 0.00 | 79 | 1017.9 |
| 20260507023101 | 78 | 359 | 1.7 | 8.7 | 0.00 | 0.00 | 0.00 | 78 | 1017.9 |
| 20260507021549 | 78 | 50 | 1.7 | 5.2 | 0.00 | 0.00 | 0.00 | 79 | 1017.9 |
| 20260507020055 | 78 | 33 | 1.7 | 7.8 | 0.00 | 0.00 | 0.00 | 79 | 1017.8 |
| 20260507014602 | 78 | 109 | 0.9 | 3.5 | 0.00 | 0.00 | 0.00 | 80 | 1017.7 |
| 20260507013055 | 79 | 129 | 0.0 | 2.6 | 0.00 | 0.00 | 0.00 | 80 | 1017.6 |
| 20260507011557 | 79 | 35 | 0.0 | 7.0 | 0.00 | 0.00 | 0.00 | 80 | 1017.5 |
| 20260507010105 | 79 | 158 | 1.7 | 8.7 | 0.00 | 0.00 | 0.00 | 80 | 1017.3 |
| 20260507004558 | 79 | 162 | 3.5 | 7.0 | 0.00 | 0.00 | 0.00 | 80 | 1017.1 |
| 20260507003100 | 79 | 77 | 0.0 | 3.5 | 0.00 | 0.00 | 0.00 | 80 | 1017.0 |
| 20260507001606 | 79 | 16 | 0.0 | 5.2 | 0.00 | 0.00 | 0.00 | 81 | 1016.9 |
| 20260507000101 | 79 | 70 | 3.5 | 8.7 | 0.00 | 0.00 | 0.00 | 81 | 1016.9 |
| 20260506234604 | 79 | 54 | 1.7 | 6.1 | 0.00 | 0.00 | 0.00 | 81 | 1016.7 |
| 20260506233002 | 79 | 164 | 0.9 | 7.0 | 0.00 | 0.00 | 0.00 | 80 | 1016.4 |
| 20260506231503 | 79 | 60 | 0.9 | 5.2 | 0.00 | 0.00 | 0.00 | 80 | 1016.2 |
| 20260506230014 | 79 | 64 | 2.6 | 5.2 | 0.00 | 0.00 | 0.00 | 79 | 1016.2 |
| 20260506224513 | 80 | 59 | 1.7 | 8.7 | 0.00 | 0.00 | 0.00 | 79 | 1016.1 |
| 20260506223024 | 80 | 50 | 1.7 | 7.8 | 0.00 | 0.00 | 0.00 | 78 | 1015.8 |
| 20260506221526 | 80 | 53 | 1.7 | 8.7 | 0.00 | 0.00 | 0.00 | 76 | 1015.6 |
| 20260506220028 | 81 | 71 | 3.5 | 9.6 | 0.00 | 0.00 | 0.00 | 75 | 1015.5 |
| 20260506214539 | 81 | 163 | 2.6 | 9.6 | 0.00 | 0.01 | 0.00 | 74 | 1015.4 |
| 20260506213044 | 82 | 52 | 4.3 | 9.6 | 0.00 | 0.01 | 0.00 | 73 | 1015.3 |
| 20260506211552 | 83 | 162 | 1.7 | 11.3 | 0.00 | 0.01 | 0.00 | 73 | 1015.1 |
| 20260506210057 | 84 | 58 | 2.6 | 10.4 | 0.00 | 0.01 | 0.00 | 71 | 1015.0 |
| 20260506204555 | 84 | 68 | 4.3 | 8.7 | 0.00 | 0.01 | 0.00 | 72 | 1015.0 |
| 20260506203055 | 84 | 359 | 3.5 | 8.7 | 0.00 | 0.01 | 0.00 | 73 | 1015.0 |
| 20260506201557 | 84 | 137 | 1.7 | 8.7 | 0.00 | 0.01 | 0.00 | 75 | 1015.1 |
| 20260506200058 | 84 | 73 | 4.3 | 12.2 | 0.00 | 0.01 | 0.00 | 76 | 1015.1 |
| 20260506194634 | 85 | 68 | 3.5 | 8.7 | 0.00 | 0.01 | 0.00 | 75 | 1015.3 |
| 20260506193106 | 85 | 66 | 3.5 | 9.6 | 0.00 | 0.01 | 0.00 | 74 | 1015.5 |
| 20260506191602 | 85 | 64 | 2.6 | 6.1 | 0.00 | 0.01 | 0.00 | 76 | 1015.6 |
| 20260506190000 | 86 | 75 | 5.2 | 10.4 | 0.00 | 0.01 | 0.00 | 74 | 1015.7 |
| 20260506184501 | 86 | 71 | 2.6 | 9.6 | 0.00 | 0.01 | 0.00 | 74 | 1015.8 |
| 20260506183003 | 86 | 16 | 3.5 | 10.4 | 0.00 | 0.01 | 0.00 | 74 | 1016.0 |
| 20260506181505 | 85 | 78 | 5.2 | 11.3 | 0.00 | 0.01 | 0.00 | 73 | 1016.2 |
| 20260506180006 | 85 | 359 | 3.5 | 11.3 | 0.00 | 0.01 | 0.00 | 72 | 1016.3 |
| 20260506174517 | 85 | 58 | 2.6 | 10.4 | 0.00 | 0.01 | 0.00 | 72 | 1016.5 |
| 20260506173018 | 85 | 47 | 3.5 | 9.6 | 0.00 | 0.01 | 0.00 | 71 | 1016.8 |
| 20260506171521 | 86 | 143 | 3.5 | 7.8 | 0.00 | 0.01 | 0.00 | 69 | 1017.0 |
| 20260506170030 | 88 | 48 | 3.5 | 10.4 | 0.00 | 0.01 | 0.00 | 67 | 1017.1 |
| 20260506164532 | 88 | 59 | 2.6 | 7.8 | 0.00 | 0.01 | 0.00 | 69 | 1017.2 |
| 20260506163104 | 90 | 43 | 2.6 | 9.6 | 0.00 | 0.01 | 0.00 | 65 | 1017.4 |
| 20260506161544 | 90 | 80 | 2.6 | 10.4 | 0.00 | 0.01 | 0.00 | 66 | 1017.7 |
| 20260506160044 | 89 | 83 | 3.5 | 7.8 | 0.00 | 0.01 | 0.00 | 70 | 1017.6 |
| 20260506154604 | 89 | 113 | 1.7 | 5.2 | 0.00 | 0.01 | 0.00 | 67 | 1017.8 |
| 20260506153051 | 89 | 176 | 0.9 | 7.0 | 0.00 | 0.01 | 0.00 | 65 | 1017.9 |
| 20260506151559 | 89 | 135 | 0.0 | 5.2 | 0.00 | 0.01 | 0.00 | 68 | 1017.9 |
| 20260506144559 | 87 | 155 | 1.7 | 5.2 | 0.00 | 0.01 | 0.00 | 70 | 1018.0 |
| 20260506143107 | 87 | 74 | 2.6 | 7.0 | 0.00 | 0.01 | 0.00 | 68 | 1018.2 |
| 20260506141508 | 88 | 137 | 2.6 | 7.8 | 0.00 | 0.01 | 0.00 | 67 | 1018.3 |
| 20260506140103 | 88 | 88 | 1.7 | 8.7 | 0.00 | 0.01 | 0.00 | 68 | 1018.4 |
| 20260506134502 | 87 | 47 | 2.6 | 6.1 | 0.00 | 0.01 | 0.00 | 69 | 1018.2 |
| 20260506133002 | 86 | 87 | 5.2 | 8.7 | 0.00 | 0.01 | 0.00 | 71 | 1018.3 |
| 20260506131504 | 84 | 88 | 3.5 | 9.6 | 0.00 | 0.01 | 0.00 | 74 | 1018.3 |
| 20260506130005 | 84 | 89 | 3.5 | 10.4 | 0.00 | 0.01 | 0.00 | 74 | 1018.2 |
| 20260506124516 | 83 | 77 | 1.7 | 9.6 | 0.00 | 0.04 | 0.00 | 77 | 1018.0 |
| 20260506123017 | 81 | 164 | 1.7 | 7.8 | 0.00 | 0.04 | 0.00 | 78 | 1018.1 |
| 20260506121535 | 81 | 135 | 3.5 | 10.4 | 0.00 | 0.04 | 0.00 | 79 | 1018.0 |
| 20260506120030 | 80 | 133 | 0.9 | 8.7 | 0.00 | 0.04 | 0.00 | 79 | 1018.0 |